TimePST,TemperatureF,Dew PointF,Humidity,Sea Level PressureIn,VisibilityMPH,Wind Direction,Wind SpeedMPH,Gust SpeedMPH,PrecipitationIn,Events,Conditions,WindDirDegrees,DateUTC
12:52 AM,50.0,16.0,26,30.28,10.0,North,3.5,-,N/A,,Clear,350,2013-02-28 08:52:00
1:52 AM,53.1,10.0,18,30.28,10.0,North,4.6,-,N/A,,Clear,350,2013-02-28 09:52:00
2:52 AM,55.0,8.1,15,30.28,10.0,North,6.9,-,N/A,,Clear,10,2013-02-28 10:52:00
3:52 AM,46.0,10.9,24,30.27,10.0,West,6.9,-,N/A,,Clear,280,2013-02-28 11:52:00
4:52 AM,41.0,16.0,36,30.29,10.0,NW,4.6,-,N/A,,Clear,310,2013-02-28 12:52:00
5:52 AM,37.0,15.1,41,30.31,10.0,Calm,Calm,-,N/A,,Clear,0,2013-02-28 13:52:00
6:52 AM,42.1,15.1,34,30.32,10.0,NE,3.5,-,N/A,,Clear,50,2013-02-28 14:52:00
7:52 AM,57.9,15.1,19,30.33,10.0,NNW,8.1,-,N/A,,Clear,340,2013-02-28 15:52:00
8:52 AM,66.0,15.1,14,30.33,10.0,North,4.6,-,N/A,,Clear,10,2013-02-28 16:52:00
9:52 AM,71.1,17.1,13,30.34,10.0,Variable,3.5,-,N/A,,Clear,0,2013-02-28 17:52:00
10:52 AM,73.9,9.0,8,30.32,10.0,Variable,3.5,-,N/A,,Clear,0,2013-02-28 18:52:00
11:52 AM,77.0,3.9,6,30.31,10.0,WNW,9.2,-,N/A,,Clear,290,2013-02-28 19:52:00
12:52 PM,79.0,6.1,6,30.28,10.0,North,10.4,-,N/A,,Clear,360,2013-02-28 20:52:00
1:52 PM,79.0,6.1,6,30.26,10.0,WNW,3.5,-,N/A,,Clear,290,2013-02-28 21:52:00
2:52 PM,80.1,6.1,6,30.25,10.0,Calm,Calm,-,N/A,,Clear,0,2013-02-28 22:52:00
3:52 PM,80.1,7.0,6,30.22,10.0,Variable,3.5,-,N/A,,Clear,0,2013-02-28 23:52:00
4:52 PM,78.1,8.1,7,30.23,10.0,West,3.5,-,N/A,,Clear,270,2013-03-01 00:52:00
5:52 PM,66.9,12.9,12,30.24,10.0,Calm,Calm,-,N/A,,Clear,0,2013-03-01 01:52:00
6:52 PM,57.9,16.0,19,30.25,10.0,Calm,Calm,-,N/A,,Clear,0,2013-03-01 02:52:00
7:52 PM,51.1,21.9,32,30.27,10.0,North,3.5,-,N/A,,Clear,10,2013-03-01 03:52:00
8:52 PM,48.9,24.1,38,30.29,10.0,Calm,Calm,-,N/A,,Clear,0,2013-03-01 04:52:00
9:52 PM,50.0,24.1,36,30.29,10.0,South,4.6,-,N/A,,Clear,180,2013-03-01 05:52:00
10:52 PM,46.0,21.9,39,30.29,10.0,Calm,Calm,-,N/A,,Clear,0,2013-03-01 06:52:00
11:52 PM,48.0,25.0,41,30.30,10.0,WSW,6.9,-,N/A,,Clear,240,2013-03-01 07:52:00